Regional Weather Roundup
Issued by NWS

Home | Current Version | Previous Version | Graphics & Text | Print | Product List | Glossary On
Versions: 1 2 3 4 5 6 7 8 9 10 11 12 13 14 15 16 17 18 19 20 21 22 23 24 25 26 27 28 29 30 31 32 33 34 35 36 37 38 39 40 41 42 43 44 45 46 47 48 49 50
000
ASUS45 KTFX 040804
RWRMT
MONTANA HOURLY WEATHER ROUNDUP
NATIONAL WEATHER SERVICE GREAT FALLS MT
104 AM MST WED MAR 4 2015

NOTE: "FAIR" INDICATES FEW OR NO CLOUDS BELOW 12000 FEET WITH NO
SIGNIFICANT WEATHER AND/OR OBSTRUCTIONS TO VISIBILITY.

* THESE STATIONS ARE NOT UNDER NWS QUALITY CONTROL. THEY DO NOT
   REPORT WEATHER SUCH AS PRECIPITATION OR FOG.

MTZ001>007-043-040900-
WEST OF THE DIVIDE
CITY           SKY/WX    TMP DP  RH WIND       PRES   REMARKS
KALISPELL      CLEAR     10   9  96 CALM      30.15S
MISSOULA       CLEAR     18  12  77 W8        30.17R WCI   8
BUTTE          CLOUDY     3   0  87 SE5       30.04R WCI  -7
MULLAN PASS    CLEAR     12   5  73 W5        30.00R WCI   4
* ANACONDA     CLEAR     14   9  80 S3         N/A
* ESSEX        N/A       11  -2  55 E4G12      N/A
* LINCOLN      N/A        2  -6  69 NE4        N/A
* LOOKOUT PASS N/A       13   7  77 N/A        N/A
* POLSON       N/A       13   6  73 S1         N/A
* SEELEY LAKE  N/A       -1  -6  79 N/A        N/A
* THOMP F APT  CLEAR     12  -3  51 N3G11      N/A
$$

MTZ008-052>055-040900-
SOUTHWEST MONTANA
CITY           SKY/WX    TMP DP  RH WIND       PRES   REMARKS
BOZEMAN        PTCLDY     0  -6  75 S9        30.10R WCI -15
DILLON         FAIR       3  -2  79 SE7       30.04R WCI  -9
* W YELLOWSTON PTCLDY    -2  -9  72 N/A        N/A
* THREE FORKS  CLEAR      7  -2  66 N/A        N/A
* BOULDER HILL N/A        2  -4  76 N/A        N/A
* MONIDA PASS  N/A        8   1  73 W8         N/A   WCI  -4
* RAYNOLDS PAS N/A       -1 -22  35 E1         N/A
* WHITEHALL    N/A        6  -2  69 N4         N/A
* WISE RIVER   N/A        9   2  73 E6         N/A   WCI  -1
$$

MTZ009>010-012-014-046-048-049-054-040900-
EAST SLOPES AND CENTRAL MONTANA
CITY           SKY/WX    TMP DP  RH WIND       PRES   REMARKS
CUT BANK       CLEAR      1  -6  72 W6        30.13F WCI -11
GREAT FALLS    CLOUDY    10   3  73 SW5       30.17S WCI   1
HELENA         CLEAR     10   1  67 W8        30.15R WCI  -2
* DEARBORN     N/A        1  -3  83 SW2        N/A
* EAST GLACIER N/A       -6 -11  78 NW9        N/A   WCI -22
* MONARCH      N/A        0  -6  75 SW7        N/A   WCI -13
* PENDROY      N/A        7  -3  63 SW3        N/A
* ROGERS PASS  N/A        1  -7  69 NW3        N/A
* SWEET GRASS  N/A        3  -9  57 W12        N/A   WCI -14
$$

MTZ011-013-016-021-035-040-045-047-050-051-040900-
NORTH CENTRAL MONTANA
CITY           SKY/WX    TMP DP  RH WIND       PRES   REMARKS
HAVRE          CLEAR      0  -6  75 SW9       30.22S WCI -15
LEWISTOWN      MOCLDY     3  -4  72 W7        30.10R WCI  -9
* N BAR RANCH  MOCLDY     5  -8  54 NW10G17   30.06R WCI -10
* CHESTER      N/A        6  -6  57 W5G10      N/A   WCI  -3
* DENTON       N/A        7  -3  63 N4         N/A
* GEYSER       N/A        9  -1  63 W17G22     N/A   WCI  -9
* JUDITH GAP   N/A        7  -2  66 NW17G22    N/A   WCI -11
* LOMA         N/A        8  -3  60 NW8        N/A   WCI  -4
$$

MTZ017>020-022>027-061-062-040900-
NORTHEAST MONTANA
CITY           SKY/WX    TMP DP  RH WIND       PRES   REMARKS
GLASGOW        CLEAR      0  -8  68 NW9       30.18R WCI -15
JORDAN         CLEAR      5  -2  72 W5        30.15R WCI  -5
SIDNEY         CLEAR     -2 -11  65 NW9       30.20R WCI -18
WOLF POINT     CLEAR      1  -9  62 N8        30.22R WCI -13
* BEAVER HILL  N/A        1  -6  72 NW21G26    N/A   WCI -21
* CIRCLE       N/A        2  -5  72 N8         N/A   WCI -12
* LINDSAY DVD  N/A       -2  -8  75 NW19G24    N/A   WCI -24
* NAVAJO       N/A       -8 -14  74 NW8        N/A   WCI -24
* SACO         N/A       -1  -6  79 NW4        N/A
$$

MTZ028>042-056>058-040900-
SOUTHCENTRAL AND SOUTHEAST MONTANA
CITY           SKY/WX    TMP DP  RH WIND       PRES   REMARKS
BAKER          CLEAR      3  -8  60 NW17G26   30.06R WCI -17
BILLINGS       MOCLDY    10  -8  43 NW14      30.12R WCI  -6
LIVINGSTON     CLEAR      0  -8  68 VRB3      30.08R
MILES CITY     MOCLDY     7   1  76 NW8       30.15R WCI  -6
* LAUREL APT   CLEAR      3  -8  60 W5         N/A   WCI  -7
* ROUNDUP APT  CLEAR      9 -13  35 NW6        N/A   WCI  -1
* ALZADA       N/A        1  -5  75 SW6        N/A   WCI -11
* HYSHAM       N/A       11  -5  48 W9         N/A   WCI  -2
* REED POINT   N/A        4  -2  76 SE2        N/A
* ROSCOE HILL  N/A        7  -8  50 E2         N/A
$$

REGIONAL REPORTS...DAKOTAS
CITY           SKY/WX    TMP DP  RH WIND       PRES   REMARKS
WILLISTON      FAIR      -6 -15  64 NW12      30.15R WCI -25
DICKINSON      CLEAR      1  -8  65 NW16G26   30.02R WCI -19
BEACH          FAIR       0  -4  83 NW16      30.08R WCI -20
CROSBY         CLEAR     -9 -15  74 NW13      30.13R WCI -30
WATFORD CITY   CLEAR     -4 -11  71 NW13G18   30.10R WCI -23
BISMARCK       MOCLDY     1  -2  87 W5        30.06F WCI  -9
GRAND FORKS    CLEAR     -2 -11  65 NW10      30.05R WCI -18
FARGO          CLEAR     -2  -9  72 W10       30.08R WCI -18
BUFFALO SD     CLEAR      1  -6  72 NW14      29.96R WCI -18
RAPID CITY     PTCLDY     1  -8  65 W5        30.07S WCI  -9
$$

REGIONAL REPORTS...WYOMING/IDAHO/WASHINGTON
CITY           SKY/WX    TMP DP  RH WIND       PRES   REMARKS
GILLETTE       PTCLDY     0  -8  68 SW12      30.03S WCI -17
SHERIDAN       PTCLDY     9  -9  43 W13       30.06S WCI  -7
CODY           PTCLDY     5   0  80 W5        30.02S WCI  -5
YELLOWSTONE LA PTCLDY   -11 -17  74 CALM      29.92R
SALMON         FAIR      19   7  59 SE3       30.11R
MULLAN PASS    CLEAR     12   5  73 W5        30.00S WCI   4
SAND POINT     CLEAR     21  16  81 CALM      30.19R
SPOKANE        CLEAR     25  12  58 SW3       30.17R

$$



USA.gov is the U.S. government's official web portal to all federal, state and local government web resources and services.